• In Slovakia
  • List of Countries
  • For 7 days
  • Water Temperature
  • Satellite Maps
  • Weather Map
  • Weather Widgets
  • user-avatar
    Login

    Hourly Weather Idzhewan

    Today, 21 May, Monday

    Time Temperature Precipitation Wind Pressure Humidity
    00:00 +16°C° 0.1 mm 1 mps 694 mmHg 84%
    01:00 +16°C° 0 mm 1 mps 694 mmHg 84%
    02:00 +16°C° 0 mm 1 mps 694 mmHg 85%
    03:00 +15°C° 0 mm 1 mps 693 mmHg 85%
    04:00 +16°C° 0 mm 1 mps 694 mmHg 83%
    05:00 +16°C° 0 mm 1 mps 694 mmHg 81%
    06:00 +18°C° 0 mm 1 mps 694 mmHg 80%
    07:00 +19°C° 0.1 mm 1 mps 694 mmHg 75%
    08:00 +21°C° 0.1 mm 1 mps 694 mmHg 70%
    09:00 +22°C° 0.1 mm 1 mps 694 mmHg 64%
    10:00 +23°C° 0.5 mm 2 mps 694 mmHg 63%
    11:00 +24°C° 0.5 mm 2 mps 694 mmHg 61%
    12:00 +25°C° 0.5 mm 2 mps 694 mmHg 59%
    13:00 +25°C° 0.8 mm 2 mps 694 mmHg 58%
    14:00 +25°C° 0.8 mm 2 mps 694 mmHg 58%
    15:00 +26°C° 0.8 mm 2 mps 694 mmHg 57%
    16:00 +25°C° 0.6 mm 2 mps 694 mmHg 62%
    17:00 +24°C° 0.6 mm 1 mps 694 mmHg 66%
    18:00 +23°C° 0.6 mm 1 mps 694 mmHg 71%
    19:00 +22°C° 0.3 mm 1 mps 694 mmHg 74%
    20:00 +20°C° 0.3 mm 1 mps 694 mmHg 78%
    21:00 +19°C° 0.3 mm 1 mps 695 mmHg 81%
    22:00 +19°C° 0.2 mm 1 mps 695 mmHg 82%
    23:00 +19°C° 0.2 mm 1 mps 695 mmHg 83%

    Tomorrow, 22 May, Tuesday

    Time Temperature Precipitation Wind Pressure Humidity
    00:00 +18°C° 0.2 mm 1 mps 695 mmHg 84%
    01:00 +18°C° 0.1 mm 1 mps 695 mmHg 86%
    02:00 +18°C° 0.1 mm 1 mps 695 mmHg 88%
    03:00 +16°C° 0.1 mm 1 mps 695 mmHg 89%
    04:00 +18°C° 0.1 mm 1 mps 695 mmHg 88%
    05:00 +18°C° 0.1 mm 1 mps 695 mmHg 88%
    06:00 +19°C° 0.1 mm 1 mps 695 mmHg 87%
    07:00 +20°C° 0.1 mm 1 mps 696 mmHg 82%
    08:00 +20°C° 0.1 mm 2 mps 696 mmHg 76%
    09:00 +21°C° 0.1 mm 2 mps 696 mmHg 71%
    10:00 +21°C° 0.2 mm 2 mps 696 mmHg 69%
    11:00 +23°C° 0.2 mm 2 mps 696 mmHg 67%
    12:00 +22°C° 0.2 mm 3 mps 696 mmHg 65%
    13:00 +24°C° 0.2 mm 3 mps 696 mmHg 63%
    14:00 +24°C° 0.2 mm 3 mps 696 mmHg 61%
    15:00 +24°C° 0.2 mm 3 mps 695 mmHg 59%
    16:00 +24°C° 0.1 mm 3 mps 695 mmHg 62%
    17:00 +23°C° 0.1 mm 2 mps 695 mmHg 65%
    18:00 +23°C° 0.1 mm 2 mps 695 mmHg 67%
    19:00 +20°C° 0 mm 2 mps 695 mmHg 69%
    20:00 +20°C° 0 mm 1 mps 696 mmHg 70%
    21:00 +18°C° 0 mm 1 mps 696 mmHg 72%
    22:00 +18°C° 0 mm 1 mps 696 mmHg 72%
    23:00 +16°C° 0 mm 1 mps 696 mmHg 73%

    Day after tomorrow, 23 May, Wednesday

    Time Temperature Precipitation Wind Pressure Humidity
    00:00 +16°C° 0 mm 2 mps 696 mmHg 74%
    01:00 +15°C° 0 mm 2 mps 696 mmHg 74%
    02:00 +15°C° 0 mm 2 mps 696 mmHg 74%
    03:00 +14°C° 0 mm 2 mps 696 mmHg 74%
    04:00 +15°C° 0 mm 2 mps 696 mmHg 73%
    05:00 +16°C° 0 mm 1 mps 696 mmHg 72%
    06:00 +16°C° 0 mm 1 mps 696 mmHg 71%
    07:00 +18°C° 0 mm 2 mps 697 mmHg 64%
    08:00 +19°C° 0 mm 2 mps 697 mmHg 57%
    09:00 +21°C° 0 mm 2 mps 697 mmHg 51%
    10:00 +23°C° 0 mm 2 mps 697 mmHg 49%
    11:00 +24°C° 0 mm 2 mps 697 mmHg 47%
    12:00 +25°C° 0 mm 3 mps 697 mmHg 45%
    13:00 +25°C° 0 mm 3 mps 696 mmHg 45%
    14:00 +26°C° 0 mm 3 mps 696 mmHg 45%
    15:00 +26°C° 0 mm 4 mps 696 mmHg 46%
    16:00 +26°C° 0 mm 3 mps 695 mmHg 48%
    17:00 +25°C° 0 mm 3 mps 695 mmHg 51%
    18:00 +24°C° 0 mm 2 mps 695 mmHg 54%
    19:00 +21°C° 0 mm 2 mps 695 mmHg 56%
    20:00 +19°C° 0 mm 2 mps 695 mmHg 58%
    21:00 +17°C° 0 mm 2 mps 695 mmHg 60%
    22:00 +17°C° 0 mm 2 mps 695 mmHg 60%
    23:00 +16°C° 0 mm 2 mps 695 mmHg 61%

    24 May, Thursday

    Time Temperature Precipitation Wind Pressure Humidity
    00:00 +16°C° 0 mm 2 mps 695 mmHg 61%
    01:00 +15°C° 0 mm 2 mps 695 mmHg 62%
    02:00 +15°C° 0 mm 2 mps 694 mmHg 62%
    03:00 +14°C° 0 mm 2 mps 694 mmHg 63%
    04:00 +15°C° 0 mm 2 mps 694 mmHg 63%
    05:00 +15°C° 0 mm 2 mps 694 mmHg 63%
    06:00 +16°C° 0 mm 2 mps 694 mmHg 64%
    07:00 +18°C° 0 mm 2 mps 694 mmHg 57%
    08:00 +20°C° 0 mm 2 mps 694 mmHg 50%
    09:00 +21°C° 0 mm 2 mps 694 mmHg 43%
    10:00 +23°C° 0 mm 2 mps 694 mmHg 42%
    11:00 +24°C° 0 mm 2 mps 694 mmHg 40%
    12:00 +25°C° 0 mm 3 mps 694 mmHg 39%
    13:00 +26°C° 0 mm 3 mps 693 mmHg 40%
    14:00 +26°C° 0 mm 3 mps 693 mmHg 40%
    15:00 +26°C° 0 mm 3 mps 692 mmHg 41%
    16:00 +25°C° 0 mm 3 mps 692 mmHg 46%
    17:00 +24°C° 0 mm 2 mps 692 mmHg 52%
    18:00 +23°C° 0 mm 2 mps 692 mmHg 57%
    19:00 +20°C° 0 mm 2 mps 692 mmHg 59%
    20:00 +19°C° 0 mm 2 mps 692 mmHg 60%
    21:00 +18°C° 0 mm 2 mps 692 mmHg 62%
    22:00 +17°C° 0 mm 2 mps 692 mmHg 63%
    23:00 +18°C° 0 mm 1 mps 692 mmHg 63%

    25 May, Friday

    Time Temperature Precipitation Wind Pressure Humidity
    00:00 +16°C° 0 mm 1 mps 692 mmHg 64%
    01:00 +16°C° 0 mm 1 mps 691 mmHg 65%
    02:00 +15°C° 0 mm 2 mps 691 mmHg 65%
    03:00 +15°C° 0 mm 2 mps 691 mmHg 66%
    04:00 +16°C° 0 mm 1 mps 691 mmHg 66%
    05:00 +16°C° 0 mm 1 mps 691 mmHg 66%
    06:00 +18°C° 0 mm 1 mps 691 mmHg 66%
    07:00 +19°C° 0 mm 1 mps 691 mmHg 60%
    08:00 +21°C° 0 mm 1 mps 691 mmHg 54%
    09:00 +23°C° 0 mm 1 mps 691 mmHg 49%
    10:00 +24°C° 0.1 mm 1 mps 691 mmHg 48%
    11:00 +25°C° 0.1 mm 2 mps 691 mmHg 47%
    12:00 +26°C° 0.1 mm 2 mps 691 mmHg 46%
    13:00 +26°C° 0.4 mm 2 mps 690 mmHg 46%
    14:00 +26°C° 0.4 mm 2 mps 690 mmHg 46%
    15:00 +26°C° 0.4 mm 2 mps 690 mmHg 47%
    16:00 +26°C° 0.4 mm 2 mps 690 mmHg 50%
    17:00 +25°C° 0.4 mm 1 mps 690 mmHg 54%
    18:00 +24°C° 0.4 mm 1 mps 690 mmHg 58%
    19:00 +23°C° 0.1 mm 1 mps 690 mmHg 61%
    20:00 +21°C° 0.1 mm 1 mps 690 mmHg 63%
    21:00 +20°C° 0.1 mm 1 mps 690 mmHg 65%
    22:00 +19°C° 0 mm 1 mps 690 mmHg 66%
    23:00 +19°C° 0 mm 1 mps 690 mmHg 66%

    26 May, Saturday

    Time Temperature Precipitation Wind Pressure Humidity
    00:00 +19°C° 0 mm 1 mps 690 mmHg 67%
    01:00 +18°C° 0 mm 1 mps 690 mmHg 67%
    02:00 +18°C° 0 mm 1 mps 690 mmHg 68%
    03:00 +17°C° 0 mm 2 mps 690 mmHg 68%
    04:00 +17°C° 0 mm 2 mps 691 mmHg 68%
    05:00 +18°C° 0 mm 2 mps 691 mmHg 68%
    06:00 +18°C° 0 mm 2 mps 691 mmHg 68%
    07:00 +21°C° 0 mm 1 mps 691 mmHg 62%
    08:00 +23°C° 0 mm 1 mps 692 mmHg 56%
    09:00 +25°C° 0 mm 1 mps 692 mmHg 50%
    10:00 +26°C° 0.2 mm 1 mps 692 mmHg 48%
    11:00 +27°C° 0.2 mm 2 mps 692 mmHg 46%
    12:00 +28°C° 0.2 mm 2 mps 692 mmHg 45%
    13:00 +28°C° 0.3 mm 2 mps 692 mmHg 45%
    14:00 +28°C° 0.3 mm 2 mps 692 mmHg 45%
    15:00 +29°C° 0.3 mm 2 mps 692 mmHg 45%
    16:00 +28°C° 0.3 mm 2 mps 692 mmHg 50%
    17:00 +27°C° 0.3 mm 2 mps 692 mmHg 56%
    18:00 +26°C° 0.3 mm 2 mps 692 mmHg 61%
    19:00 +24°C° 0.2 mm 1 mps 692 mmHg 63%
    20:00 +22°C° 0.2 mm 1 mps 693 mmHg 65%
    21:00 +21°C° 0.2 mm 1 mps 693 mmHg 68%
    22:00 +20°C° 0.1 mm 1 mps 693 mmHg 68%
    23:00 +20°C° 0.1 mm 1 mps 693 mmHg 68%
    Show more